TimeCST,TemperatureF,Dew PointF,Humidity,Sea Level PressureIn,VisibilityMPH,Wind Direction,Wind SpeedMPH,Gust SpeedMPH,PrecipitationIn,Events,Conditions,WindDirDegrees,DateUTC
12:53 AM,39.0,33.1,79,30.16,9.0,Calm,Calm,-,N/A,,Partly Cloudy,0,2014-02-09 06:53:00
1:53 AM,39.0,34.0,82,30.15,9.0,Calm,Calm,-,N/A,,Mostly Cloudy,0,2014-02-09 07:53:00
2:53 AM,39.0,35.1,86,30.14,8.0,Calm,Calm,-,0.01,,Overcast,0,2014-02-09 08:53:00
3:53 AM,37.9,34.0,86,30.14,7.0,Calm,Calm,-,N/A,,Scattered Clouds,0,2014-02-09 09:53:00
4:53 AM,39.0,34.0,82,30.13,6.0,Calm,Calm,-,N/A,,Haze,0,2014-02-09 10:53:00
5:53 AM,39.0,36.0,89,30.14,5.0,Calm,Calm,-,N/A,,Overcast,0,2014-02-09 11:53:00
6:53 AM,39.9,35.1,83,30.16,6.0,Calm,Calm,-,N/A,,Haze,0,2014-02-09 12:53:00
7:53 AM,39.9,36.0,86,30.18,5.0,Calm,Calm,-,N/A,,Overcast,0,2014-02-09 13:53:00
8:50 AM,42.8,35.6,76,30.18,8.0,West,5.8,-,N/A,,Overcast,270,2014-02-09 14:50:00
8:53 AM,42.1,36.0,79,30.19,8.0,West,5.8,-,N/A,,Overcast,280,2014-02-09 14:53:00
9:53 AM,45.0,37.9,76,30.17,9.0,WSW,6.9,-,N/A,,Overcast,240,2014-02-09 15:53:00
10:53 AM,48.0,39.0,71,30.16,10.0,WNW,6.9,-,N/A,,Overcast,290,2014-02-09 16:53:00
11:06 AM,48.2,37.4,66,30.15,10.0,West,6.9,-,N/A,,Overcast,280,2014-02-09 17:06:00
11:53 AM,46.0,37.9,73,30.16,9.0,WNW,6.9,-,N/A,,Overcast,300,2014-02-09 17:53:00
12:53 PM,46.9,37.0,68,30.12,9.0,NW,5.8,-,N/A,,Overcast,310,2014-02-09 18:53:00
1:53 PM,46.9,37.0,68,30.12,10.0,NW,5.8,-,N/A,,Overcast,320,2014-02-09 19:53:00
2:53 PM,46.9,37.0,68,30.14,10.0,NW,8.1,-,N/A,,Overcast,320,2014-02-09 20:53:00
3:53 PM,46.0,36.0,68,30.14,10.0,NNW,5.8,-,N/A,,Overcast,330,2014-02-09 21:53:00
4:53 PM,45.0,35.1,68,30.16,9.0,NNW,5.8,-,N/A,,Overcast,340,2014-02-09 22:53:00
5:53 PM,44.1,35.1,71,30.17,10.0,North,4.6,-,N/A,,Overcast,10,2014-02-09 23:53:00
6:53 PM,43.0,35.1,74,30.15,9.0,Calm,Calm,-,N/A,,Overcast,0,2014-02-10 00:53:00
7:53 PM,43.0,35.1,74,30.15,9.0,Calm,Calm,-,N/A,,Overcast,0,2014-02-10 01:53:00
8:53 PM,43.0,35.1,74,30.17,9.0,NNE,3.5,-,N/A,,Overcast,20,2014-02-10 02:53:00
9:53 PM,42.1,35.1,76,30.15,8.0,NNE,6.9,-,N/A,,Overcast,20,2014-02-10 03:53:00
10:53 PM,41.0,35.1,79,30.17,9.0,NNE,9.2,-,N/A,,Overcast,20,2014-02-10 04:53:00
11:27 PM,39.2,35.6,87,30.17,5.0,NNE,9.2,-,N/A,,Haze,20,2014-02-10 05:27:00
11:46 PM,39.2,35.6,87,30.17,5.0,North,8.1,-,N/A,,Overcast,10,2014-02-10 05:46:00
11:53 PM,39.0,35.1,86,30.17,5.0,North,8.1,-,N/A,,Overcast,10,2014-02-10 05:53:00